�������l�o���
Date,Time,MP-1(��Sv/h),MP-2(��Sv/h),MP-3(��Sv/h),MP-4(��Sv/h),MP-5(��Sv/h),MP-6(��Sv/h),MP-7(��Sv/h),MP-8(��Sv/h),����,����(m/s),���J
2017/01/21,00:00,0.980,1.574,1.038,1.820,1.148,0.517,0.951,0.911,�k�k��,11.4,�L
2017/01/21,00:10,0.973,1.568,1.036,1.816,1.145,0.516,0.948,0.911,�k�k��,11.6,�L
2017/01/21,00:20,0.971,1.564,1.033,1.812,1.138,0.512,0.946,0.909,�k�k��,10.7,�L
2017/01/21,00:30,0.966,1.556,1.028,1.808,1.134,0.512,0.944,0.907,�k��,10.6,�L
2017/01/21,00:40,0.959,1.547,1.025,1.800,1.131,0.510,0.941,0.908,�k�k��,10.8,�L
2017/01/21,00:50,0.957,1.544,1.020,1.793,1.129,0.510,0.940,0.907,�k�k��,9.5,�L
2017/01/21,01:00,0.953,1.544,1.017,1.788,1.126,0.508,0.941,0.907,�k�k��,11.3,�L
2017/01/21,01:10,0.948,1.543,1.016,1.785,1.125,0.507,0.941,0.907,�k�k��,11.4,�L
2017/01/21,01:20,0.947,1.543,1.015,1.788,1.123,0.507,0.942,0.907,�k�k��,11.4,�L
2017/01/21,01:30,0.945,1.539,1.014,1.788,1.125,0.505,0.943,0.910,�k�k��,10.2,�L
2017/01/21,01:40,0.947,1.542,1.017,1.791,1.124,0.506,0.946,0.910,�k�k��,9.8,�L
2017/01/21,01:50,0.945,1.543,1.016,1.788,1.125,0.505,0.947,0.911,�k�k��,9.4,�L
2017/01/21,02:00,0.942,1.540,1.017,1.793,1.125,0.504,0.947,0.911,�k�k��,10.2,�L
2017/01/21,02:10,0.942,1.540,1.014,1.795,1.124,0.507,0.944,0.910,�k�k��,10.0,�L
2017/01/21,02:20,0.942,1.536,1.016,1.792,1.120,0.505,0.943,0.909,�k�k��,10.6,�L
2017/01/21,02:30,0.940,1.540,1.016,1.791,1.123,0.504,0.943,0.909,�k�k��,10.2,�L
2017/01/21,02:40,0.940,1.540,1.012,1.795,1.123,0.505,0.943,0.910,�k�k��,9.8,�L
2017/01/21,02:50,0.942,1.541,1.016,1.795,1.122,0.506,0.944,0.910,�k�k��,12.2,�L
2017/01/21,03:00,0.941,1.544,1.014,1.798,1.123,0.505,0.946,0.911,�k�k��,10.5,�L
2017/01/21,03:10,0.942,1.544,1.016,1.797,1.125,0.504,0.947,0.911,�k�k��,10.2,�L
2017/01/21,03:20,0.940,1.545,1.015,1.800,1.125,0.504,0.946,0.912,�k�k��,9.4,��
2017/01/21,03:30,0.940,1.545,1.017,1.799,1.125,0.505,0.947,0.911,�k�k��,8.9,��
2017/01/21,03:40,0.939,1.545,1.019,1.802,1.123,0.505,0.948,0.913,�k�k��,10.0,��
2017/01/21,03:50,0.942,1.551,1.020,1.803,1.127,0.503,0.952,0.913,�k�k��,10.5,��
2017/01/21,04:00,0.943,1.551,1.019,1.807,1.129,0.504,0.949,0.912,�k�k��,11.3,��
2017/01/21,04:10,0.942,1.556,1.019,1.806,1.128,0.505,0.951,0.915,�k�k��,10.3,��
2017/01/21,04:20,0.943,1.556,1.019,1.805,1.129,0.504,0.950,0.913,�k�k��,9.7,��
2017/01/21,04:30,0.943,1.556,1.023,1.810,1.131,0.505,0.953,0.915,�k�k��,11.8,��
2017/01/21,04:40,0.943,1.559,1.023,1.814,1.133,0.503,0.954,0.917,�k�k��,12.2,��
2017/01/21,04:50,0.943,1.559,1.025,1.815,1.136,0.506,0.954,0.914,�k�k��,11.4,��
2017/01/21,05:00,0.945,1.562,1.026,1.817,1.136,0.505,0.955,0.916,�k�k��,10.2,��
2017/01/21,05:10,0.944,1.566,1.027,1.819,1.134,0.506,0.957,0.918,�k�k��,11.1,��
2017/01/21,05:20,0.945,1.566,1.027,1.820,1.138,0.505,0.957,0.917,�k�k��,11.1,��
2017/01/21,05:30,0.948,1.568,1.029,1.820,1.138,0.506,0.958,0.915,�k�k��,10.9,��
2017/01/21,05:40,0.946,1.568,1.028,1.822,1.139,0.505,0.958,0.917,�k�k��,10.2,��
2017/01/21,05:50,0.947,1.571,1.029,1.824,1.140,0.505,0.959,0.917,�k�k��,9.7,��
2017/01/21,06:00,0.947,1.570,1.029,1.827,1.142,0.507,0.959,0.916,�k�k��,9.2,��
2017/01/21,06:10,0.949,1.573,1.031,1.827,1.141,0.505,0.960,0.918,�k�k��,9.4,��
2017/01/21,06:20,0.948,1.573,1.032,1.828,1.141,0.507,0.960,0.917,�k�k��,11.0,��
2017/01/21,06:30,0.947,1.575,1.031,1.828,1.142,0.507,0.960,0.918,�k�k��,11.3,��
2017/01/21,06:40,0.947,1.579,1.032,1.830,1.147,0.506,0.962,0.918,�k�k��,11.6,��
2017/01/21,06:50,0.949,1.578,1.032,1.831,1.146,0.508,0.959,0.920,�k��,12.7,��
2017/01/21,07:00,0.950,1.575,1.036,1.832,1.146,0.506,0.962,0.919,�k�k��,10.3,��
2017/01/21,07:10,0.950,1.579,1.037,1.835,1.147,0.506,0.963,0.918,�k�k��,10.0,��
2017/01/21,07:20,0.951,1.578,1.035,1.835,1.149,0.508,0.962,0.920,�k�k��,10.3,��
2017/01/21,07:30,0.953,1.581,1.037,1.837,1.149,0.510,0.964,0.920,�k��,8.7,��
2017/01/21,07:40,0.951,1.583,1.038,1.840,1.148,0.509,0.964,0.919,�k��,8.5,��
2017/01/21,07:50,0.952,1.584,1.039,1.841,1.150,0.507,0.964,0.918,�k��,8.3,��
2017/01/21,08:00,0.953,1.586,1.039,1.843,1.150,0.509,0.965,0.920,�k��,9.1,��
2017/01/21,08:10,0.953,1.585,1.040,1.841,1.153,0.509,0.965,0.919,�k��,8.9,��
2017/01/21,08:20,0.952,1.589,1.040,1.843,1.154,0.509,0.965,0.920,�k��,8.6,��
2017/01/21,08:30,0.956,1.589,1.041,1.843,1.155,0.509,0.964,0.920,�k��,9.0,��
2017/01/21,08:40,0.956,1.589,1.040,1.847,1.156,0.509,0.966,0.921,�k��,7.6,��
2017/01/21,08:50,0.955,1.589,1.046,1.845,1.155,0.511,0.967,0.922,�k��,6.7,��
2017/01/21,09:00,0.959,1.596,1.042,1.848,1.158,0.509,0.970,0.923,�k��,7.1,��
2017/01/21,09:10,0.956,1.597,1.045,1.848,1.162,0.511,0.967,0.922,�k��,6.1,��
2017/01/21,09:20,0.960,1.601,1.049,1.851,1.167,0.511,0.969,0.923,�k��,5.9,��
2017/01/21,09:30,0.962,1.603,1.048,1.852,1.168,0.511,0.968,0.923,�k��,5.2,��
2017/01/21,09:40,0.962,1.607,1.051,1.853,1.170,0.511,0.969,0.924,�k��,6.6,��
2017/01/21,09:50,0.966,1.613,1.055,1.855,1.173,0.509,0.973,0.925,�k�k��,7.4,��
2017/01/21,10:00,0.969,1.614,1.054,1.853,1.178,0.512,0.973,0.925,�k�k��,7.0,��
2017/01/21,10:10,0.971,1.618,1.056,1.861,1.182,0.511,0.972,0.923,�k��,5.9,��
2017/01/21,10:20,0.973,1.619,1.058,1.860,1.186,0.512,0.975,0.926,�k��,6.7,��
2017/01/21,10:30,0.978,1.621,1.062,1.863,1.192,0.513,0.974,0.927,�k��,4.8,��
2017/01/21,10:40,0.981,1.627,1.065,1.866,1.199,0.514,0.975,0.927,�k��,4.8,��
2017/01/21,10:50,0.986,1.636,1.070,1.870,1.205,0.513,0.976,0.928,�k��,6.3,��
2017/01/21,11:00,0.988,1.639,1.075,1.872,1.210,0.514,0.978,0.927,�k��,9.4,��
2017/01/21,11:10,0.993,1.642,1.074,1.876,1.217,0.516,0.976,0.928,�k��,7.2,��
2017/01/21,11:20,0.998,1.645,1.080,1.877,1.219,0.516,0.976,0.930,�k��,7.6,��
2017/01/21,11:30,1.000,1.652,1.083,1.877,1.226,0.518,0.981,0.929,�k��,7.9,��
2017/01/21,11:40,1.005,1.659,1.087,1.880,1.233,0.518,0.980,0.931,�k��,5.1,��
2017/01/21,11:50,1.010,1.659,1.090,1.886,1.236,0.518,0.982,0.932,�k��,6.7,��
2017/01/21,12:00,1.012,1.668,1.092,1.886,1.242,0.519,0.983,0.931,�k�k��,7.4,��
2017/01/21,12:10,1.014,1.675,1.100,1.890,1.248,0.522,0.988,0.932,�k��,8.3,��
2017/01/21,12:20,1.014,1.679,1.100,1.894,1.256,0.522,0.986,0.935,�k�k��,8.1,��
2017/01/21,12:30,1.021,1.683,1.102,1.897,1.260,0.524,0.986,0.934,�k��,8.7,��
2017/01/21,12:40,1.020,1.687,1.105,1.899,1.266,0.525,0.990,0.934,�k��,8.4,��
2017/01/21,12:50,1.023,1.687,1.109,1.902,1.273,0.525,0.991,0.933,�k��,8.5,��
2017/01/21,13:00,1.024,1.692,1.110,1.906,1.277,0.526,0.991,0.935,�k��,10.5,��
2017/01/21,13:10,1.026,1.694,1.112,1.908,1.284,0.527,0.991,0.933,�k��,7.2,��
2017/01/21,13:20,1.026,1.697,1.115,1.911,1.286,0.528,0.993,0.935,�k��,7.5,��
2017/01/21,13:30,1.028,1.703,1.115,1.913,1.291,0.529,0.994,0.934,�k��,7.5,��
2017/01/21,13:40,1.027,1.705,1.118,1.916,1.294,0.530,0.996,0.932,�k�k��,6.1,��
2017/01/21,13:50,1.031,1.704,1.120,1.917,1.295,0.532,0.995,0.932,�k�k��,7.2,��
2017/01/21,14:00,1.029,1.707,1.120,1.917,1.304,0.532,0.996,0.935,�k��,7.2,��
2017/01/21,14:10,1.030,1.708,1.123,1.921,1.306,0.532,0.998,0.934,�k��,7.4,��
2017/01/21,14:20,1.031,1.711,1.123,1.920,1.309,0.533,0.997,0.934,�k�k��,7.7,��
2017/01/21,14:30,1.029,1.713,1.126,1.923,1.311,0.534,0.999,0.935,�k�k��,7.8,��
2017/01/21,14:40,1.032,1.711,1.124,1.926,1.315,0.533,0.999,0.936,�k�k��,6.1,��
2017/01/21,14:50,1.031,1.713,1.125,1.927,1.315,0.535,0.999,0.936,�k�k��,6.2,��
2017/01/21,15:00,1.034,1.718,1.126,1.934,1.318,0.535,0.999,0.938,�k��,6.2,��
2017/01/21,15:10,1.032,1.721,1.128,1.927,1.319,0.535,1.001,0.935,�k,5.8,��
2017/01/21,15:20,1.033,1.721,1.127,1.933,1.321,0.536,1.000,0.935,�k,5.4,��
2017/01/21,15:30,1.034,1.725,1.127,1.932,1.323,0.536,1.001,0.937,�k�k��,5.5,��
2017/01/21,15:40,1.032,1.723,1.128,1.936,1.321,0.536,1.002,0.937,�k,5.8,��
2017/01/21,15:50,1.034,1.726,1.129,1.934,1.325,0.536,1.000,0.934,�k,6.0,��
2017/01/21,16:00,1.033,1.727,1.127,1.936,1.325,0.536,1.001,0.936,�k,6.0,��
2017/01/21,16:10,1.033,1.727,1.129,1.937,1.328,0.538,1.001,0.937,�k,5.8,��
2017/01/21,16:20,1.032,1.727,1.127,1.937,1.328,0.537,0.999,0.936,�k,5.7,��
2017/01/21,16:30,1.032,1.729,1.129,1.937,1.328,0.538,1.002,0.936,�k,5.1,��
2017/01/21,16:40,1.031,1.729,1.129,1.939,1.327,0.537,1.001,0.936,�k,4.9,��
2017/01/21,16:50,1.031,1.727,1.128,1.941,1.329,0.536,1.001,0.935,�k�k��,4.0,��
2017/01/21,17:00,1.034,1.727,1.128,1.937,1.330,0.537,1.002,0.937,�k�k��,3.1,��
2017/01/21,17:10,1.030,1.726,1.129,1.940,1.327,0.540,1.001,0.936,�k�k��,3.6,��
2017/01/21,17:20,1.032,1.728,1.127,1.940,1.330,0.537,1.002,0.937,�k�k��,4.2,��
2017/01/21,17:30,1.031,1.730,1.129,1.937,1.330,0.536,1.002,0.937,�k�k��,4.7,��
2017/01/21,17:40,1.030,1.728,1.128,1.938,1.332,0.537,1.001,0.936,�k�k��,4.7,��
2017/01/21,17:50,1.031,1.728,1.127,1.940,1.332,0.537,1.001,0.936,�k�k��,5.9,��
2017/01/21,18:00,1.028,1.729,1.126,1.940,1.332,0.536,0.998,0.936,�k�k��,6.0,��
2017/01/21,18:10,1.030,1.728,1.125,1.940,1.330,0.537,1.000,0.936,�k�k��,4.9,��
2017/01/21,18:20,1.030,1.731,1.128,1.939,1.335,0.538,1.000,0.936,�k�k��,5.1,��
2017/01/21,18:30,1.028,1.729,1.129,1.939,1.335,0.537,1.000,0.936,�k��,4.5,��
2017/01/21,18:40,1.032,1.728,1.127,1.939,1.332,0.537,0.999,0.935,�k�k��,4.3,��
2017/01/21,18:50,1.027,1.730,1.127,1.939,1.336,0.538,0.999,0.935,�k��,5.6,��
2017/01/21,19:00,1.031,1.730,1.128,1.941,1.333,0.537,0.999,0.936,�k��,4.7,��
2017/01/21,19:10,1.030,1.730,1.127,1.939,1.333,0.537,1.001,0.936,�k��,5.1,��
2017/01/21,19:20,1.029,1.731,1.126,1.942,1.331,0.536,0.999,0.935,�k��,5.4,��
2017/01/21,19:30,1.029,1.730,1.128,1.942,1.333,0.536,1.001,0.936,�k��,5.6,��
2017/01/21,19:40,1.027,1.730,1.127,1.942,1.334,0.537,1.000,0.935,�k��,5.2,��
2017/01/21,19:50,1.028,1.728,1.128,1.941,1.335,0.536,0.999,0.934,�k�k��,5.1,��
2017/01/21,20:00,1.030,1.730,1.126,1.942,1.332,0.537,0.999,0.935,�k�k��,4.4,��
2017/01/21,20:10,1.030,1.731,1.126,1.942,1.333,0.536,1.000,0.936,�k�k��,3.8,��
2017/01/21,20:20,1.026,1.731,1.124,1.943,1.334,0.538,1.002,0.933,�k��,3.2,��
2017/01/21,20:30,1.028,1.726,1.124,1.942,1.333,0.536,1.000,0.935,�k��,2.5,��
2017/01/21,20:40,1.025,1.728,1.123,1.940,1.336,0.537,0.999,0.936,�k��,3.6,��
2017/01/21,20:50,1.027,1.730,1.126,1.940,1.330,0.537,0.999,0.934,�k��,3.0,��
2017/01/21,21:00,1.028,1.728,1.127,1.942,1.332,0.537,1.001,0.935,���k��,3.0,��
2017/01/21,21:10,1.031,1.725,1.125,1.943,1.332,0.536,0.999,0.936,���k��,2.6,��
2017/01/21,21:20,1.027,1.728,1.125,1.941,1.335,0.537,0.999,0.936,���k��,2.8,��
2017/01/21,21:30,1.027,1.729,1.125,1.944,1.334,0.537,0.999,0.934,��,3.8,��
2017/01/21,21:40,1.026,1.727,1.123,1.943,1.332,0.538,0.998,0.936,���쐼,4.5,��
2017/01/21,21:50,1.024,1.728,1.125,1.942,1.333,0.537,1.000,0.936,��,4.3,��
2017/01/21,22:00,1.025,1.727,1.126,1.941,1.331,0.534,1.000,0.935,��,5.5,��
2017/01/21,22:10,1.026,1.727,1.124,1.941,1.332,0.537,1.000,0.935,��,6.2,��
2017/01/21,22:20,1.028,1.727,1.124,1.942,1.334,0.536,0.999,0.934,��,5.6,��
2017/01/21,22:30,1.027,1.728,1.127,1.943,1.331,0.537,1.000,0.935,���쐼,3.3,��
2017/01/21,22:40,1.026,1.729,1.123,1.943,1.333,0.537,1.001,0.936,���쐼,3.0,��
2017/01/21,22:50,1.026,1.730,1.124,1.944,1.332,0.536,0.999,0.936,���쐼,3.9,��
2017/01/21,23:00,1.025,1.724,1.125,1.942,1.332,0.536,1.000,0.934,���쐼,5.2,��
2017/01/21,23:10,1.024,1.727,1.126,1.944,1.330,0.537,1.000,0.937,���쐼,5.0,��
2017/01/21,23:20,1.024,1.728,1.124,1.939,1.332,0.537,1.001,0.936,��,3.4,��
2017/01/21,23:30,1.025,1.727,1.123,1.943,1.331,0.538,0.999,0.935,���k��,3.9,��
2017/01/21,23:40,1.025,1.725,1.124,1.942,1.329,0.537,1.001,0.936,�k��,2.6,��
2017/01/21,23:50,1.023,1.727,1.122,1.944,1.330,0.537,1.002,0.936,�k��,1.7,��
